Content
SEND FEEDBACK

Daily
Averages
Monthly
Summary
United States of America

MINNEAPOLIS, MINNESOTA


Home > North America > United States > Minnesota
Elevation: 834 feet     Latitude: 44 53N     Longitude: 093 13W

WEATHER
 
SELECT A DAY
Number of Records: 206,600;   Date Range: 1/1/95 - 9/30/14
 
SHARE

PRINT THIS DATA

[ ← Previous Day ]
WEATHER ALMANAC - JANUARY 31, 2013
[ Next Day → ]
[ °C ]   °F
Weather ElementAverageHighLow
Temperature-0.1 °F5 °F (1:53 am)-9 °F (10:53 pm)
Dewpoint-6.1 °F1.4 °F (2:42 am)-16.1 °F (11:53 pm)
Humidity76.1 %92 % (2:42 am)69 % (1:53 pm)
Barometer30.06 in30.35 in (11:53 pm)29.79 in (2:42 am)
Wind Speed15.4 mph20.7 mph (9:53 am)
Wind Gust31.1 mph (1:15 pm)
Weather ElementAverage
Visibility8.3 mi
Wind DirectionWNW (296.1 °)

Weather ElementTotal
Precipitation---
Heating Degree Days67 (Base 65)
Averaged from 28 records on January 31, 2013
WEATHER CONDITIONS BREAKOUT
WIND DIRECTION BREAKOUT
WEATHER BY HOUR - JANUARY 31, 2013
[ °C ]   °F
Local TimeTemperatureDewpointHumidityBarometerVisibilityWind DirectionWind SpeedGust SpeedPrecipitationEventsConditions
1:53 AM5.0 °F1.0 °F84 %29.84 in7.0 miWNW (300°)10.4 mph0.00 inSnowLight Snow
2:42 AM3.2 °F1.4 °F92 %29.79 in8.0 miWest (280°)12.7 mph0.00 inMostly Cloudy
2:53 AM3.9 °F1.0 °F88 %29.85 in9.0 miWNW (290°)12.7 mph0.00 inMostly Cloudy
3:10 AM3.2 °F1.4 °F92 %29.79 in10.0 miWNW (290°)13.8 mphOvercast
3:53 AM3.9 °F0.0 °F84 %29.86 in10.0 miNW (320°)15.0 mphOvercast
4:53 AM3.0 °F-2.0 °F80 %29.88 in10.0 miWNW (300°)12.7 mph21.9 mphOvercast
5:53 AM3.0 °F-2.0 °F80 %29.90 in8.0 miWNW (300°)12.7 mph0.00 inSnowLight Snow
6:53 AM1.9 °F-2.9 °F80 %29.93 in5.0 miWNW (300°)13.8 mph24.2 mph0.00 inSnowLight Snow
7:53 AM1.0 °F-5.1 °F75 %29.96 in9.0 miNW (310°)16.1 mph0.00 inSnowLight Snow
8:53 AM0.0 °F-6.0 °F76 %29.99 in9.0 miWNW (300°)19.6 mph27.6 mph0.00 inMostly Cloudy
9:53 AM0.0 °F-7.1 °F72 %30.03 in9.0 miWNW (300°)20.7 mph27.6 mph0.00 inSnowLight Snow
10:53 AM1.0 °F-5.1 °F75 %30.06 in6.0 miWNW (290°)19.6 mph26.5 mph0.00 inSnowLight Snow
11:53 AM1.0 °F-6.0 °F72 %30.08 in6.0 miNW (310°)18.4 mph26.5 mph0.00 inSnowLight Snow
12:42 PM1.4 °F-5.8 °F72 %30.02 in5.0 miWNW (300°)15.0 mph25.3 mph0.00 inSnowLight Snow
12:53 PM1.9 °F-4.0 °F76 %30.09 in3.0 miWNW (300°)13.8 mph23.0 mph0.00 inSnowLight Snow
1:15 PM1.4 °F-5.8 °F72 %30.03 in3.0 miNW (310°)19.6 mph31.1 mph0.00 inSnowLight Snow
1:30 PM1.4 °F-5.8 °F72 %30.04 in7.0 miWNW (300°)20.7 mph27.6 mph0.00 inSnowLight Snow
1:53 PM1.0 °F-7.1 °F69 %30.12 in9.0 miWNW (300°)17.3 mph25.3 mph0.00 inSnowLight Snow
2:53 PM1.0 °F-7.1 °F69 %30.14 in9.0 miWNW (290°)19.6 mph26.5 mph0.00 inSnowLight Snow
3:53 PM1.0 °F-7.1 °F69 %30.16 in9.0 miWNW (290°)15.0 mph24.2 mph0.00 inSnowLight Snow
4:53 PM0.0 °F-7.1 °F72 %30.20 in10.0 miWNW (300°)15.0 mph25.3 mph0.00 inMostly Cloudy
5:53 PM-0.9 °F-9.0 °F69 %30.22 in10.0 miWNW (300°)17.3 mph28.8 mphScattered Clouds
6:53 PM-4.0 °F-9.9 °F76 %30.25 in10.0 miWNW (290°)18.4 mph23.0 mphClear
7:53 PM-5.1 °F-11.9 °F72 %30.28 in10.0 miWNW (290°)11.5 mphClear
8:53 PM-6.0 °F-13.0 °F72 %30.30 in10.0 miWest (280°)13.8 mphClear
9:53 PM-8.0 °F-14.1 °F75 %30.32 in10.0 miWest (280°)11.5 mphClear
10:53 PM-9.0 °F-15.0 °F75 %30.33 in10.0 miWest (280°)13.8 mph20.7 mphClear
11:53 PM-9.0 °F-16.1 °F71 %30.35 in10.0 miWNW (290°)11.5 mphClear
Hourly data recorded from KMSP, located miles away from Minneapolis, Minnesota







STORIES FROM OUR PARTNERS